Вернуться в каталог

STARLINK-31036

АктивенСвязьVLEO
NORAD 58533·PAYLOAD·🇺🇸 United States

Запущен Dec 8, 2023 с Vandenberg Space Force Base

Loading…

Ближайшие Пролёты (ближайшие 24 часа)

TLE

СвежийSource: CelesTrak SupGP

Эпоха: Sep 15, 2026, 02:41 UTC

1 58533C 23192C   26258.11229167 -.00034483  00000+0 -10181-2 0  2587
2 58533  53.1575 258.9081 0001347  90.2304 262.4198 15.34429150    15

Отслеживайте STARLINK-31036 в реальном времени с AllMySat

Download on the App Store